Wind_Speed
29 28 27 26 25 22 20 17 14 11 8 8 9 10 13 17 20 24 28 30 33 35 36 38 39 40 40 39 38 37 37 36 36 36 35 35 33 32 31 30 30 28 27
30 29 28 28 27 25 22 19 15 12 9 7 7 8 10 13 16 20 24 27 30 32 34 36 37 39 39 40 39 37 36 35 36 35 36 35 34 32 32 31 30 29 29
31 30 29 28 27 26 24 21 18 15 11 8 7 6 8 10 13 17 20 23 26 28 31 33 35 36 37 38 38 37 35 35 35 35 35 34 34 34 32 32 31 30 30
32 31 30 29 28 26 25 23 21 18 15 11 8 6 5 7 10 13 16 18 21 24 27 29 31 33 34 35 36 36 36 36 36 35 33 32 33 33 33 32 31 31 30
32 32 31 30 29 27 26 24 22 21 18 15 12 9 6 5 7 10 12 14 17 19 21 24 27 30 31 32 33 34 34 34 34 33 33 32 32 32 32 32 32 31 30
32 32 32 31 30 29 27 24 23 21 20 17 16 13 9 6 4 6 8 10 13 16 17 20 23 26 27 28 30 31 32 32 31 32 31 32 31 31 31 31 30 29 28
31 31 32 32 32 30 28 25 24 22 21 19 17 15 12 8 5 2 5 7 10 13 15 17 20 22 24 25 27 28 29 30 29 29 30 30 29 29 28 28 28 27 27
30 31 31 32 33 32 30 28 25 24 23 20 18 16 13 10 7 4 2 3 6 9 12 14 16 18 21 23 24 25 26 26 27 27 27 27 26 26 26 25 26 25 25
29 30 31 31 32 32 31 29 27 25 25 23 20 18 15 12 9 6 3 1 2 6 9 12 14 16 18 21 22 22 23 24 24 23 23 24 24 24 24 24 24 24 23
28 28 29 30 30 31 30 29 28 27 26 24 23 21 18 15 11 8 6 4 2 3 6 9 11 14 15 17 18 19 20 21 21 22 22 22 23 24 24 23 23 23 22
27 27 27 28 28 29 29 29 28 27 26 25 23 22 20 18 15 11 9 7 5 4 5 7 9 11 13 15 16 17 18 19 20 19 20 21 21 22 22 22 22 21 20
25 26 26 26 27 27 27 27 27 27 26 25 24 22 20 18 16 14 11 9 7 6 5 5 7 9 11 12 14 15 16 17 18 18 18 18 19 19 19 20 20 19 19
24 25 25 25 25 25 25 25 25 25 25 24 23 22 20 18 17 14 12 10 8 6 5 5 6 7 9 10 11 13 14 14 15 16 17 16 17 17 17 17 17 17 17
23 23 24 24 23 23 23 23 23 23 23 22 22 21 20 19 17 15 13 11 9 8 6 4 4 5 7 8 9 10 12 12 14 15 15 15 15 15 15 15 16 16 16
22 22 22 22 22 22 21 21 21 21 21 20 20 20 19 18 17 15 13 11 9 6 5 4 3 4 5 7 8 10 11 12 13 13 13 14 14 14 15 15 15 15 15
22 21 21 21 21 21 20 20 19 19 19 19 18 18 17 17 16 15 13 12 10 8 5 4 3 3 4 5 7 9 10 11 12 12 13 13 13 13 13 14 14 14 13
22 21 21 20 20 20 19 19 18 18 17 17 17 17 16 15 15 14 13 11 10 9 7 5 3 3 4 4 6 7 8 9 10 12 12 12 12 12 12 12 13 13 12
22 22 21 20 20 19 19 18 17 17 16 15 15 15 14 14 13 12 12 11 10 8 7 5 4 2 1 2 4 5 6 8 9 10 10 10 10 11 11 11 11 11 11
24 23 22 21 21 20 19 18 17 16 15 15 14 13 12 12 11 10 10 9 8 7 7 5 4 3 2 1 2 3 5 6 7 8 9 9 10 10 10 10 10 10 10
26 25 24 23 22 21 20 19 18 17 16 15 14 13 12 11 10 9 8 7 7 6 5 4 3 2 1 0 1 3 4 5 7 8 8 8 9 9 9 9 9 10 10
29 28 27 26 25 24 22 21 20 19 18 16 15 14 13 12 10 9 8 7 7 6 5 4 3 3 2 2 2 3 4 5 6 7 8 9 9 9 9 10 10 10 11
32 31 30 29 28 26 25 24 23 21 20 19 17 16 15 14 13 11 10 9 8 7 6 6 6 5 5 5 5 5 6 6 7 8 8 9 10 10 10 11 11 11 12
36 35 34 32 31 30 28 27 26 24 23 22 20 19 18 17 15 14 13 12 11 10 10 9 8 8 8 8 8 8 8 9 9 9 10 10 11 11 12 12 12 12 12
40 39 38 36 35 34 32 31 29 28 26 25 23 22 21 20 19 18 17 15 14 13 13 12 12 11 11 10 10 11 11 11 12 12 12 12 12 13 13 14 14 14 14
44 43 42 41 39 38 37 35 33 32 30 28 27 26 24 24 23 22 20 19 18 17 16 16 15 14 14 14 13 13 13 13 13 14 14 14 15 15 15 15 16 16 17
48 47 46 45 44 42 41 40 38 36 34 33 31 30 28 27 26 25 24 23 22 21 20 19 19 18 18 17 17 17 16 16 16 16 17 17 17 17 18 18 18 18 19
Wind_Direction
13 13 12 11 10 10 7 4 360 352 328 299 276 257 241 235 233 231 229 229 229 229 229 229 229 228 228 230 230 232 231 231 232 232 232 233 234 236 238 241 242 246 250
14 15 15 15 15 15 14 11 7 1 351 329 300 272 251 242 236 232 230 229 229 229 229 228 228 228 228 229 230 230 230 230 231 232 233 235 235 235 238 240 242 245 247
16 15 16 17 17 18 18 16 14 10 3 353 330 296 269 252 240 233 230 230 229 228 228 228 227 227 228 228 229 229 230 229 230 231 232 234 234 234 237 239 241 243 246
18 18 18 18 18 19 19 20 21 18 15 9 355 331 298 264 247 237 233 232 230 227 226 225 225 224 226 228 228 230 230 230 230 231 231 232 233 233 235 237 241 243 245
20 20 20 20 19 19 19 21 21 21 19 17 11 1 339 292 257 241 234 231 229 227 225 222 222 223 223 225 225 228 229 229 230 231 230 230 231 233 233 237 240 242 243
19 20 20 21 20 20 20 20 20 19 18 16 14 10 0 343 298 247 233 228 225 224 223 221 220 220 221 221 222 224 225 226 229 231 230 230 232 232 234 236 239 239 241
18 19 20 21 21 21 22 21 21 21 19 17 14 13 12 8 357 300 221 216 219 220 219 219 218 216 217 216 219 222 224 225 228 229 227 228 231 232 234 237 236 236 242
18 19 20 21 21 22 22 23 23 23 21 20 19 19 19 21 25 43 131 199 208 211 214 215 214 214 215 214 214 218 219 222 224 226 226 226 227 229 232 233 235 239 240
16 17 19 20 21 22 23 24 24 24 23 23 24 24 25 28 37 47 57 108 195 203 205 207 209 213 213 213 213 214 216 220 222 224 221 223 226 229 231 232 234 235 238
14 15 16 18 20 21 22 25 26 26 26 26 28 30 33 38 44 49 55 66 91 166 185 192 196 200 203 207 209 210 212 217 221 222 218 219 220 223 225 230 233 235 240
11 12 13 15 17 19 20 23 25 26 27 29 31 32 36 41 45 51 59 65 76 103 143 168 182 189 193 198 203 206 210 213 211 211 214 216 218 222 226 228 230 233 237
7 9 10 12 14 16 18 20 22 25 27 29 32 34 36 40 43 49 54 57 67 83 110 143 167 180 185 190 195 198 202 205 203 207 209 214 218 221 223 225 227 228 233
1 4 6 8 10 12 15 17 20 23 25 28 31 33 35 38 41 45 48 53 66 75 98 117 143 165 177 186 193 196 199 202 205 208 209 213 218 220 220 221 223 230 236
354 357 0 3 5 8 11 14 16 19 22 26 29 32 35 37 39 42 47 52 58 62 73 89 127 162 175 179 186 193 197 198 199 203 209 214 215 214 219 222 224 228 233
346 350 353 356 359 2 4 7 10 14 17 19 22 26 30 33 36 39 42 47 49 51 58 72 111 146 172 186 191 191 196 200 201 206 210 213 215 216 221 223 225 228 231
337 340 343 347 350 354 357 0 3 6 10 13 15 18 23 28 32 37 41 42 44 47 54 66 90 135 158 168 182 192 199 206 210 212 214 216 219 223 223 223 224 226 230
327 330 332 336 339 343 347 351 354 358 2 6 9 13 16 21 26 29 33 37 40 46 52 62 84 126 155 181 190 193 201 206 210 212 213 219 224 225 225 225 225 225 226
317 319 322 324 327 331 334 338 342 345 350 354 359 3 8 12 16 20 25 30 34 38 44 54 66 83 136 183 198 204 205 207 210 213 216 221 224 227 228 228 227 226 226
307 309 312 314 315 318 321 325 328 331 334 338 342 348 353 358 3 6 10 15 20 26 31 38 50 63 76 114 195 209 209 207 212 216 219 220 220 221 222 222 224 226 226
300 301 302 304 306 307 309 311 314 317 319 321 325 328 331 337 343 347 350 354 356 359 3 9 15 20 29 233 217 211 211 213 217 220 221 219 219 221 223 224 227 229 231
293 294 294 295 296 298 299 300 302 303 305 307 308 310 312 314 317 321 325 327 329 330 328 325 320 313 302 283 258 241 229 224 224 225 224 224 225 226 228 230 233 235 237
287 287 288 288 289 290 291 292 292 293 293 294 295 295 296 297 298 299 299 300 301 301 300 297 291 286 281 275 266 256 248 242 241 240 236 232 231 234 236 239 241 244 245
282 282 282 282 283 283 284 284 285 285 286 285 285 285 284 285 285 286 287 287 285 283 282 280 279 275 272 269 266 261 255 252 249 245 242 240 240 241 242 243 245 247 250
279 278 277 277 277 277 278 278 278 279 279 279 278 278 277 276 276 276 277 277 277 275 274 273 272 269 267 265 264 262 259 257 255 252 250 249 249 248 248 248 250 252 255
277 276 274 273 273 273 273 272 272 273 273 273 272 272 272 271 271 271 270 270 269 269 269 268 267 266 264 262 261 260 259 258 256 255 253 253 253 253 253 253 254 256 257
274 273 272 271 270 269 269 268 268 268 268 268 268 267 267 267 267 267 267 267 266 265 264 264 264 264 264 262 261 260 258 257 257 256 255 255 255 255 255 256 257 259 260
Height
5777 5771 5764 5758 5752 5747 5742 5738 5735 5732 5731 5730 5730 5730 5732 5734 5736 5740 5744 5748 5753 5757 5763 5768 5773 5779 5784 5790 5795 5800 5806 5811 5816 5820 5824 5827 5831 5835 5838 5841 5844 5846 5848
5779 5773 5766 5760 5754 5749 5743 5739 5735 5733 5730 5729 5728 5728 5729 5730 5732 5735 5738 5742 5746 5751 5755 5760 5766 5771 5777 5782 5788 5793 5798 5803 5808 5812 5817 5820 5824 5828 5832 5835 5837 5840 5842
5782 5775 5769 5763 5757 5751 5746 5741 5737 5733 5731 5729 5728 5727 5727 5727 5729 5731 5733 5737 5740 5744 5749 5753 5758 5764 5769 5775 5780 5786 5791 5796 5801 5805 5809 5813 5817 5821 5825 5828 5831 5833 5835
5785 5778 5772 5765 5759 5754 5748 5743 5739 5735 5731 5729 5727 5726 5725 5725 5726 5727 5729 5732 5735 5739 5742 5747 5752 5757 5762 5768 5773 5779 5784 5789 5793 5798 5802 5806 5810 5814 5817 5821 5824 5826 5829
5788 5781 5775 5768 5762 5756 5751 5746 5741 5737 5733 5730 5727 5725 5724 5723 5723 5724 5726 5728 5731 5734 5737 5741 5746 5751 5756 5761 5767 5772 5777 5782 5786 5791 5795 5799 5803 5807 5811 5814 5817 5819 5822
5791 5785 5778 5772 5765 5759 5754 5749 5744 5739 5735 5732 5729 5726 5723 5722 5721 5722 5723 5725 5727 5730 5734 5737 5741 5746 5750 5755 5761 5766 5771 5776 5780 5785 5789 5793 5797 5801 5804 5807 5810 5813 5816
5794 5788 5782 5775 5769 5763 5757 5752 5747 5742 5738 5734 5730 5727 5724 5721 5720 5720 5721 5723 5725 5727 5730 5734 5737 5742 5746 5751 5756 5761 5765 5770 5775 5779 5783 5787 5791 5794 5798 5801 5804 5807 5810
5797 5791 5785 5779 5773 5767 5760 5755 5750 5745 5740 5736 5732 5728 5725 5723 5721 5721 5721 5722 5723 5725 5728 5731 5734 5738 5742 5747 5752 5756 5760 5765 5769 5774 5778 5781 5785 5788 5792 5795 5798 5801 5803
5800 5795 5789 5783 5777 5771 5765 5759 5753 5748 5743 5739 5734 5731 5727 5725 5723 5722 5722 5723 5723 5725 5726 5729 5732 5735 5739 5743 5748 5752 5756 5760 5764 5769 5772 5776 5779 5783 5786 5790 5792 5795 5797
5803 5797 5792 5786 5781 5775 5769 5763 5757 5752 5747 5743 5738 5734 5730 5727 5726 5725 5724 5724 5724 5725 5726 5728 5731 5734 5737 5741 5745 5749 5753 5757 5761 5764 5768 5771 5775 5778 5781 5785 5787 5790 5792
5805 5800 5795 5789 5784 5779 5773 5767 5762 5757 5752 5747 5742 5738 5734 5731 5729 5728 5727 5727 5726 5727 5728 5729 5731 5733 5736 5740 5743 5747 5750 5754 5757 5761 5764 5767 5771 5774 5777 5780 5783 5785 5787
5807 5802 5797 5792 5787 5782 5777 5772 5766 5761 5756 5752 5748 5744 5740 5736 5734 5732 5731 5730 5729 5729 5730 5730 5732 5734 5736 5739 5742 5745 5748 5751 5755 5758 5761 5764 5768 5770 5773 5775 5778 5780 5783
5808 5804 5799 5794 5790 5785 5780 5775 5771 5766 5761 5757 5752 5749 5745 5741 5739 5736 5735 5733 5733 5732 5732 5733 5733 5735 5736 5739 5741 5744 5747 5750 5753 5756 5759 5762 5765 5767 5769 5772 5774 5777 5779
5809 5805 5800 5796 5792 5787 5783 5779 5774 5770 5766 5761 5757 5753 5750 5746 5743 5741 5739 5737 5736 5735 5735 5735 5735 5736 5737 5739 5741 5743 5746 5748 5751 5754 5757 5760 5762 5764 5767 5769 5771 5773 5775
5808 5805 5801 5797 5793 5789 5785 5781 5777 5773 5769 5765 5761 5758 5754 5751 5748 5745 5742 5741 5739 5738 5737 5737 5737 5737 5738 5740 5741 5743 5745 5748 5750 5753 5755 5757 5760 5762 5764 5766 5768 5770 5772
5807 5804 5801 5797 5794 5790 5786 5783 5779 5775 5771 5768 5764 5761 5757 5754 5751 5748 5746 5744 5742 5741 5740 5739 5739 5739 5740 5741 5742 5743 5745 5747 5749 5751 5753 5755 5757 5759 5761 5763 5765 5767 5769
5805 5802 5799 5796 5793 5790 5787 5783 5780 5777 5773 5770 5767 5763 5760 5757 5754 5752 5749 5747 5745 5744 5742 5741 5741 5741 5742 5742 5743 5744 5745 5746 5748 5750 5752 5754 5755 5757 5758 5760 5762 5764 5765
5802 5799 5797 5794 5791 5789 5786 5783 5780 5777 5774 5771 5768 5765 5762 5759 5757 5754 5752 5750 5748 5746 5745 5744 5743 5742 5742 5743 5743 5744 5745 5746 5747 5749 5750 5752 5753 5755 5756 5758 5759 5761 5763
5797 5795 5793 5791 5788 5786 5784 5781 5779 5776 5773 5771 5768 5766 5763 5761 5758 5756 5754 5752 5750 5748 5747 5745 5745 5744 5744 5743 5744 5744 5745 5746 5747 5748 5749 5750 5752 5753 5754 5756 5757 5759 5760
5792 5790 5788 5786 5784 5782 5780 5778 5776 5774 5771 5769 5767 5765 5763 5761 5759 5756 5754 5752 5751 5749 5748 5747 5746 5745 5744 5744 5744 5744 5745 5745 5746 5747 5748 5749 5750 5751 5752 5754 5755 5756 5758
5785 5783 5781 5780 5778 5777 5775 5773 5772 5770 5768 5766 5765 5763 5761 5759 5757 5756 5754 5752 5750 5749 5748 5747 5746 5745 5744 5744 5744 5744 5744 5744 5745 5746 5746 5747 5748 5749 5750 5752 5753 5754 5755
5776 5775 5773 5772 5771 5770 5769 5767 5766 5765 5763 5762 5761 5759 5758 5756 5755 5753 5752 5750 5749 5748 5746 5745 5745 5744 5743 5743 5742 5742 5742 5743 5743 5744 5744 5745 5746 5747 5748 5749 5750 5751 5751
5765 5764 5764 5763 5762 5762 5761 5760 5759 5758 5757 5756 5755 5754 5753 5752 5750 5749 5748 5747 5746 5745 5744 5743 5742 5742 5741 5741 5740 5740 5740 5740 5741 5741 5742 5742 5743 5744 5744 5745 5746 5747 5747
5753 5752 5752 5752 5752 5751 5751 5750 5750 5749 5749 5748 5748 5747 5746 5746 5745 5744 5743 5743 5742 5741 5740 5739 5739 5738 5738 5737 5737 5737 5737 5737 5737 5738 5738 5739 5739 5740 5740 5741 5742 5742 5743
5738 5739 5739 5739 5739 5739 5739 5739 5739 5739 5739 5739 5739 5739 5738 5738 5738 5737 5737 5737 5736 5736 5735 5735 5734 5734 5733 5733 5733 5733 5733 5733 5733 5733 5734 5734 5735 5735 5736 5736 5737 5737 5738
5723 5723 5723 5724 5725 5725 5726 5727 5727 5727 5728 5728 5729 5729 5729 5729 5729 5729 5729 5729 5729 5729 5728 5728 5728 5728 5728 5728 5728 5727 5728 5728 5728 5728 5729 5729 5729 5730 5730 5731 5731 5731 5731